{"data":{"norad_id":49169,"epoch":"2026-05-25T03:23:34.846656Z","epoch_age_seconds":73121,"freshness":"FRESH","line1":"1 49169U 21082AR  26145.14137554  .00000120  00000+0  17858-4 0  9995","line2":"2 49169  70.0001  81.7049 0003064 270.5301  89.5507 14.98332765257926","mean_motion":14.98332765,"eccentricity":0.0003064,"inclination_deg":70.0001,"raan_deg":81.7049,"arg_perigee_deg":270.5301,"mean_anomaly_deg":89.5507,"bstar":1.7858e-5,"rev_number":25792,"period_min":96.106821771331,"perigee_km":569.91780394125,"apogee_km":574.17687690506,"semimajor_km":6950.1843404232,"source":"CELESTRAK","updated_at":"2026-05-25T13:38:16.792077Z"}}